| time (UTC) | temp F | wind direction | speed MPH | gust MPH | rain 1hr in | rain 24hr in | rain mn in | humidity % | barometer mb |
| 20260905211437 | 81 | 359 | 1.0 | 2.0 | 0.00 | 0.00 | 0.00 | 50 | |
| 20260905210932 | 81 | 351 | 1.0 | 3.0 | 0.00 | 0.00 | 0.00 | 50 | |
| 20260905210433 | 81 | 3 | 1.0 | 3.0 | 0.00 | 0.00 | 0.00 | 50 | |
| 20260905205932 | 82 | 355 | 1.0 | 2.0 | 0.00 | 0.00 | 0.00 | 49 | |
| 20260905205427 | 82 | 353 | 0.0 | 2.0 | 0.00 | 0.00 | 0.00 | 51 | |
| 20260905204926 | 81 | 356 | 0.0 | 1.0 | 0.00 | 0.00 | 0.00 | 50 | |
| 20260905204422 | 79 | 352 | 0.0 | 2.0 | 0.00 | 0.00 | 0.00 | 51 | |
| 20260905203921 | 78 | 349 | 1.0 | 2.0 | 0.00 | 0.00 | 0.00 | 54 | |
| 20260905203416 | 79 | 356 | 1.0 | 3.0 | 0.00 | 0.00 | 0.00 | 52 | |
| 20260905202912 | 82 | 355 | 1.0 | 2.0 | 0.00 | 0.00 | 0.00 | 49 | |
| 20260905202407 | 80 | 4 | 0.0 | 2.0 | 0.00 | 0.00 | 0.00 | 54 | |
| 20260905201902 | 77 | 6 | 0.0 | 1.0 | 0.00 | 0.00 | 0.00 | 57 | |
| 20260905201357 | 78 | 226 | 1.0 | 3.0 | 0.00 | 0.00 | 0.00 | 56 | |
| 20260905200851 | 81 | 356 | 1.0 | 3.0 | 0.00 | 0.00 | 0.00 | 53 | |
| 20260905200348 | 79 | 222 | 2.0 | 3.0 | 0.00 | 0.00 | 0.00 | 53 | |
| 20260905195845 | 80 | 349 | 1.0 | 5.0 | 0.00 | 0.00 | 0.00 | 53 | |
| 20260905195335 | 82 | 9 | 1.0 | 2.0 | 0.00 | 0.00 | 0.00 | 50 | |
| 20260905194831 | 81 | 359 | 0.0 | 3.0 | 0.00 | 0.00 | 0.00 | 52 | |
| 20260905194330 | 80 | 357 | 1.0 | 2.0 | 0.00 | 0.00 | 0.00 | 50 | |
| 20260905193830 | 81 | 20 | 2.0 | 3.0 | 0.00 | 0.00 | 0.00 | 49 | |
| 20260905193325 | 80 | 0 | 1.0 | 2.0 | 0.00 | 0.00 | 0.00 | 50 | |
| 20260905192820 | 80 | 123 | 1.0 | 1.0 | 0.00 | 0.00 | 0.00 | 50 | |
| 20260905192316 | 80 | 318 | 0.0 | 2.0 | 0.00 | 0.00 | 0.00 | 53 | |
| 20260905191815 | 78 | 5 | 3.0 | 3.0 | 0.00 | 0.00 | 0.00 | 52 | |
| 20260905191314 | 80 | 342 | 1.0 | 3.0 | 0.00 | 0.00 | 0.00 | 51 | |
| 20260905190813 | 79 | 325 | 1.0 | 3.0 | 0.00 | 0.00 | 0.00 | 52 | |
| 20260905190313 | 80 | 345 | 0.0 | 5.0 | 0.00 | 0.00 | 0.00 | 53 | |
| 20260905185811 | 78 | 352 | 0.0 | 5.0 | 0.00 | 0.00 | 0.00 | 55 | |
| 20260905185307 | 77 | 359 | 1.0 | 1.0 | 0.00 | 0.00 | 0.00 | 57 | |
| 20260905184801 | 79 | 354 | 1.0 | 2.0 | 0.00 | 0.00 | 0.00 | 54 | |
| 20260905184259 | 80 | 357 | 0.0 | 2.0 | 0.00 | 0.00 | 0.00 | 53 | |
| 20260905183753 | 79 | 331 | 0.0 | 6.0 | 0.00 | 0.00 | 0.00 | 54 | |
| 20260905183249 | 79 | 335 | 2.0 | 3.0 | 0.00 | 0.00 | 0.00 | 53 | |
| 20260905182748 | 78 | 349 | 2.0 | 3.0 | 0.00 | 0.00 | 0.00 | 55 | |
| 20260905182248 | 79 | 347 | 0.0 | 2.0 | 0.00 | 0.00 | 0.00 | 54 | |
| 20260905181743 | 79 | 344 | 1.0 | 6.0 | 0.00 | 0.00 | 0.00 | 54 | |
| 20260905181242 | 77 | 340 | 1.0 | 1.0 | 0.00 | 0.00 | 0.00 | 56 | |
| 20260905180737 | 78 | 6 | 2.0 | 3.0 | 0.00 | 0.00 | 0.00 | 56 | |
| 20260905180232 | 78 | 331 | 3.0 | 5.0 | 0.00 | 0.00 | 0.00 | 55 | |
| 20260905175727 | 80 | 333 | 1.0 | 3.0 | 0.00 | 0.00 | 0.00 | 52 | |
| 20260905175221 | 80 | 4 | 1.0 | 3.0 | 0.00 | 0.00 | 0.00 | 53 | |
| 20260905174716 | 80 | 66 | 1.0 | 3.0 | 0.00 | 0.00 | 0.00 | 52 | |
| 20260905174212 | 80 | 261 | 3.0 | 6.0 | 0.00 | 0.00 | 0.00 | 53 | |
| 20260905173709 | 79 | 6 | 0.0 | 2.0 | 0.00 | 0.00 | 0.00 | 55 | |
| 20260905173204 | 80 | 353 | 1.0 | 5.0 | 0.00 | 0.00 | 0.00 | 53 | |
| 20260905172703 | 79 | 344 | 1.0 | 5.0 | 0.00 | 0.00 | 0.00 | 53 | |
| 20260905172157 | 78 | 309 | 0.0 | 2.0 | 0.00 | 0.00 | 0.00 | 59 | |
| 20260905171653 | 78 | 5 | 0.0 | 3.0 | 0.00 | 0.00 | 0.00 | 56 | |
| 20260905171149 | 78 | 347 | 0.0 | 5.0 | 0.00 | 0.00 | 0.00 | 58 | |
| 20260905170646 | 79 | 349 | 1.0 | 3.0 | 0.00 | 0.00 | 0.00 | 55 | |
| 20260905170141 | 78 | 320 | 1.0 | 3.0 | 0.00 | 0.00 | 0.00 | 55 | |
| 20260905165640 | 78 | 338 | 0.0 | 3.0 | 0.00 | 0.00 | 0.00 | 56 | |
| 20260905165136 | 78 | 312 | 1.0 | 3.0 | 0.00 | 0.00 | 0.00 | 57 | |
| 20260905164631 | 79 | 36 | 1.0 | 2.0 | 0.00 | 0.00 | 0.00 | 56 | |
| 20260905164130 | 77 | 355 | 1.0 | 5.0 | 0.00 | 0.00 | 0.00 | 58 | |
| 20260905163626 | 78 | 356 | 1.0 | 5.0 | 0.00 | 0.00 | 0.00 | 58 | |
| 20260905163123 | 78 | 345 | 0.0 | 2.0 | 0.00 | 0.00 | 0.00 | 61 | |
| 20260905162619 | 77 | 274 | 1.0 | 5.0 | 0.00 | 0.00 | 0.00 | 59 | |
| 20260905162118 | 77 | 345 | 1.0 | 5.0 | 0.00 | 0.00 | 0.00 | 58 | |
| 20260905161617 | 77 | 178 | 2.0 | 3.0 | 0.00 | 0.00 | 0.00 | 60 | |
| 20260905161116 | 78 | 252 | 1.0 | 3.0 | 0.00 | 0.00 | 0.00 | 60 | |
| 20260905160615 | 77 | 339 | 0.0 | 3.0 | 0.00 | 0.00 | 0.00 | 58 | |
| 20260905160109 | 77 | 352 | 1.0 | 6.0 | 0.00 | 0.00 | 0.00 | 59 | |
| 20260905155604 | 76 | 316 | 1.0 | 3.0 | 0.00 | 0.00 | 0.00 | 61 | |
| 20260905155103 | 76 | 342 | 3.0 | 3.0 | 0.00 | 0.00 | 0.00 | 59 | |
| 20260905154557 | 77 | 338 | 2.0 | 5.0 | 0.00 | 0.00 | 0.00 | 60 | |
| 20260905154053 | 76 | 320 | 0.0 | 5.0 | 0.00 | 0.00 | 0.00 | 61 | |
| 20260905153548 | 76 | 316 | 3.0 | 3.0 | 0.00 | 0.00 | 0.00 | 62 | |
| 20260905153048 | 75 | 328 | 1.0 | 3.0 | 0.00 | 0.00 | 0.00 | 65 | |
| 20260905152543 | 75 | 319 | 1.0 | 6.0 | 0.00 | 0.00 | 0.00 | 66 | |
| 20260905152038 | 76 | 330 | 1.0 | 2.0 | 0.00 | 0.00 | 0.00 | 65 | |
| 20260905151533 | 75 | 310 | 2.0 | 3.0 | 0.00 | 0.00 | 0.00 | 67 | |
| 20260905151029 | 73 | 351 | 1.0 | 2.0 | 0.00 | 0.00 | 0.00 | 69 | |
| 20260905150524 | 73 | 2 | 1.0 | 2.0 | 0.00 | 0.00 | 0.00 | 69 | |
| 20260905150021 | 75 | 12 | 2.0 | 2.0 | 0.00 | 0.00 | 0.00 | 68 | |
| 20260905145515 | 75 | 163 | 2.0 | 7.0 | 0.00 | 0.00 | 0.00 | 69 | |
| 20260905145015 | 74 | 11 | 0.0 | 3.0 | 0.00 | 0.00 | 0.00 | 72 | |
| 20260905144510 | 74 | 4 | 1.0 | 5.0 | 0.00 | 0.00 | 0.00 | 74 | |
| 20260905144009 | 74 | 336 | 2.0 | 3.0 | 0.00 | 0.00 | 0.00 | 75 | |
| 20260905143508 | 74 | 355 | 1.0 | 3.0 | 0.00 | 0.00 | 0.00 | 73 | |
| 20260905143003 | 74 | 359 | 2.0 | 3.0 | 0.00 | 0.00 | 0.00 | 73 | |
| 20260905142501 | 73 | 343 | 0.0 | 3.0 | 0.00 | 0.00 | 0.00 | 75 | |
| 20260905141957 | 73 | 346 | 1.0 | 3.0 | 0.00 | 0.00 | 0.00 | 75 | |
| 20260905141452 | 73 | 338 | 1.0 | 5.0 | 0.00 | 0.00 | 0.00 | 75 | |
| 20260905140948 | 73 | 359 | 0.0 | 5.0 | 0.00 | 0.00 | 0.00 | 77 | |
| 20260905140443 | 73 | 354 | 1.0 | 2.0 | 0.00 | 0.00 | 0.00 | 76 | |
| 20260905135942 | 72 | 357 | 1.0 | 5.0 | 0.00 | 0.00 | 0.00 | 77 | |
| 20260905135438 | 73 | 10 | 1.0 | 3.0 | 0.00 | 0.00 | 0.00 | 76 | |
| 20260905134933 | 73 | 351 | 3.0 | 3.0 | 0.00 | 0.00 | 0.00 | 77 | |
| 20260905134432 | 72 | 338 | 0.0 | 1.0 | 0.00 | 0.00 | 0.00 | 78 | |
| 20260905133931 | 72 | 23 | 0.0 | 1.0 | 0.00 | 0.00 | 0.00 | 79 | |
| 20260905133426 | 71 | 327 | 0.0 | 5.0 | 0.00 | 0.00 | 0.00 | 79 | |
| 20260905132926 | 70 | 83 | 1.0 | 2.0 | 0.00 | 0.00 | 0.00 | 80 | |
| 20260905132421 | 70 | 353 | 0.0 | 2.0 | 0.00 | 0.00 | 0.00 | 80 | |
| 20260905131916 | 70 | 346 | 0.0 | 2.0 | 0.00 | 0.00 | 0.00 | 80 | |
| 20260905131412 | 70 | 235 | 0.0 | 1.0 | 0.00 | 0.00 | 0.00 | 80 | |
| 20260905130907 | 70 | 340 | 0.0 | 3.0 | 0.00 | 0.00 | 0.00 | 81 | |
| 20260905130406 | 70 | 14 | 1.0 | 3.0 | 0.00 | 0.00 | 0.00 | 81 | |
| 20260905125901 | 69 | 357 | 0.0 | 1.0 | 0.00 | 0.00 | 0.00 | 82 | |
| 20260905125355 | 69 | 0 | 0.0 | 2.0 | 0.00 | 0.00 | 0.00 | 82 | |
| 20260905124851 | 69 | 353 | 0.0 | 1.0 | 0.00 | 0.00 | 0.00 | 83 | |
| 20260905124348 | 68 | 24 | 0.0 | 1.0 | 0.00 | 0.00 | 0.00 | 84 | |
| 20260905123848 | 68 | 133 | 0.0 | 3.0 | 0.00 | 0.00 | 0.00 | 84 | |
| 20260905123344 | 68 | 352 | 1.0 | 2.0 | 0.00 | 0.00 | 0.00 | 84 | |
| 20260905122844 | 67 | 0 | 0.0 | 1.0 | 0.00 | 0.00 | 0.00 | 86 | |
| 20260905122343 | 67 | 357 | 0.0 | 1.0 | 0.00 | 0.00 | 0.00 | 86 | |
| 20260905121839 | 66 | 352 | 0.0 | 0.0 | 0.00 | 0.00 | 0.00 | 87 | |
| 20260905121335 | 66 | 359 | 0.0 | 0.0 | 0.00 | 0.00 | 0.00 | 88 | |
| 20260905120834 | 65 | 359 | 0.0 | 3.0 | 0.00 | 0.00 | 0.00 | 89 | |
| 20260905120328 | 64 | 355 | 0.0 | 0.0 | 0.00 | 0.00 | 0.00 | 90 | |
| 20260905115824 | 64 | 358 | 0.0 | 0.0 | 0.00 | 0.00 | 0.00 | 92 | |
| 20260905115323 | 63 | 1 | 0.0 | 0.0 | 0.00 | 0.00 | 0.00 | 93 | |
| 20260905114823 | 62 | 1 | 0.0 | 0.0 | 0.00 | 0.00 | 0.00 | 95 | |
| 20260905114322 | 61 | 341 | 0.0 | 0.0 | 0.00 | 0.00 | 0.00 | 94 | |
| 20260905113822 | 61 | 356 | 0.0 | 0.0 | 0.00 | 0.00 | 0.00 | 95 | |
| 20260905113318 | 61 | 357 | 0.0 | 0.0 | 0.00 | 0.00 | 0.00 | 95 | |
| 20260905112813 | 61 | 5 | 0.0 | 0.0 | 0.00 | 0.00 | 0.00 | 95 | |
| 20260905112308 | 61 | 2 | 0.0 | 0.0 | 0.00 | 0.00 | 0.00 | 95 | |
| 20260905111803 | 61 | 358 | 0.0 | 0.0 | 0.00 | 0.00 | 0.00 | 95 | |
| 20260905111257 | 61 | 358 | 0.0 | 0.0 | 0.00 | 0.00 | 0.00 | 95 | |
| 20260905110756 | 61 | 359 | 0.0 | 0.0 | 0.00 | 0.00 | 0.00 | 95 | |
| 20260905110250 | 61 | 357 | 0.0 | 0.0 | 0.00 | 0.00 | 0.00 | 95 | |
| 20260905105746 | 61 | 358 | 0.0 | 0.0 | 0.00 | 0.00 | 0.00 | 95 | |
| 20260905105245 | 61 | 0 | 0.0 | 0.0 | 0.00 | 0.00 | 0.00 | 95 | |
| 20260905104739 | 61 | 358 | 0.0 | 0.0 | 0.00 | 0.00 | 0.00 | 95 | |
| 20260905104236 | 61 | 357 | 0.0 | 0.0 | 0.00 | 0.00 | 0.00 | 95 | |
| 20260905103730 | 61 | 1 | 0.0 | 0.0 | 0.00 | 0.00 | 0.00 | 95 | |
| 20260905103226 | 61 | 0 | 0.0 | 0.0 | 0.00 | 0.00 | 0.00 | 95 | |
| 20260905102722 | 61 | 1 | 0.0 | 0.0 | 0.00 | 0.00 | 0.00 | 95 | |
| 20260905102218 | 61 | 355 | 0.0 | 0.0 | 0.00 | 0.00 | 0.00 | 95 | |
| 20260905101717 | 61 | 349 | 0.0 | 0.0 | 0.00 | 0.00 | 0.00 | 95 | |
| 20260905101215 | 62 | 344 | 0.0 | 0.0 | 0.00 | 0.00 | 0.00 | 95 | |
| 20260905100712 | 62 | 340 | 0.0 | 0.0 | 0.00 | 0.00 | 0.00 | 95 | |
| 20260905100206 | 62 | 1 | 0.0 | 0.0 | 0.00 | 0.00 | 0.00 | 96 | |
| 20260905095706 | 62 | 357 | 0.0 | 0.0 | 0.00 | 0.00 | 0.00 | 96 | |
| 20260905095200 | 61 | 0 | 0.0 | 0.0 | 0.00 | 0.00 | 0.00 | 96 | |
| 20260905094655 | 61 | 356 | 0.0 | 0.0 | 0.00 | 0.00 | 0.00 | 96 | |
| 20260905094155 | 61 | 1 | 0.0 | 0.0 | 0.00 | 0.00 | 0.00 | 95 | |
| 20260905093649 | 61 | 357 | 0.0 | 0.0 | 0.00 | 0.00 | 0.00 | 95 | |
| 20260905093146 | 61 | 1 | 0.0 | 0.0 | 0.00 | 0.00 | 0.00 | 95 | |
| 20260905092646 | 61 | 1 | 0.0 | 0.0 | 0.00 | 0.00 | 0.00 | 95 | |
| 20260905092142 | 61 | 1 | 0.0 | 0.0 | 0.00 | 0.00 | 0.00 | 95 | |
| 20260905091636 | 62 | 1 | 0.0 | 0.0 | 0.00 | 0.00 | 0.00 | 95 | |
| 20260905091136 | 62 | 1 | 0.0 | 0.0 | 0.00 | 0.00 | 0.00 | 95 | |
| 20260905090631 | 62 | 1 | 0.0 | 0.0 | 0.00 | 0.00 | 0.00 | 95 | |
| 20260905090126 | 62 | 358 | 0.0 | 0.0 | 0.00 | 0.00 | 0.00 | 94 | |
| 20260905085625 | 62 | 358 | 0.0 | 0.0 | 0.00 | 0.00 | 0.00 | 94 | |
| 20260905085120 | 62 | 359 | 0.0 | 0.0 | 0.00 | 0.00 | 0.00 | 94 | |
| 20260905084619 | 62 | 355 | 0.0 | 0.0 | 0.00 | 0.00 | 0.00 | 94 | |
| 20260905084115 | 62 | 3 | 0.0 | 0.0 | 0.00 | 0.00 | 0.00 | 94 | |
| 20260905083609 | 62 | 8 | 0.0 | 1.0 | 0.00 | 0.00 | 0.00 | 94 | |
| 20260905083106 | 62 | 358 | 0.0 | 0.0 | 0.00 | 0.00 | 0.00 | 94 | |
| 20260905082601 | 62 | 357 | 0.0 | 0.0 | 0.00 | 0.00 | 0.00 | 94 | |
| 20260905082057 | 62 | 0 | 0.0 | 1.0 | 0.00 | 0.00 | 0.00 | 94 | |
| 20260905081556 | 62 | 349 | 0.0 | 0.0 | 0.00 | 0.00 | 0.00 | 94 | |
| 20260905081051 | 62 | 357 | 0.0 | 0.0 | 0.00 | 0.00 | 0.00 | 94 | |
| 20260905080550 | 62 | 357 | 0.0 | 0.0 | 0.00 | 0.00 | 0.00 | 94 | |
| 20260905080045 | 62 | 11 | 0.0 | 0.0 | 0.00 | 0.00 | 0.00 | 94 | |
| 20260905075539 | 62 | 359 | 0.0 | 0.0 | 0.00 | 0.00 | 0.00 | 93 | |
| 20260905075038 | 62 | 357 | 0.0 | 0.0 | 0.00 | 0.00 | 0.00 | 93 | |
| 20260905074532 | 62 | 13 | 0.0 | 0.0 | 0.00 | 0.00 | 0.00 | 93 | |
| 20260905074029 | 62 | 0 | 0.0 | 0.0 | 0.00 | 0.00 | 0.00 | 93 | |
| 20260905073524 | 62 | 357 | 0.0 | 0.0 | 0.00 | 0.00 | 0.00 | 93 | |
| 20260905073020 | 62 | 356 | 0.0 | 0.0 | 0.00 | 0.00 | 0.00 | 92 | |
| 20260905072519 | 62 | 26 | 0.0 | 0.0 | 0.00 | 0.00 | 0.00 | 92 | |
| 20260905072015 | 62 | 346 | 0.0 | 1.0 | 0.00 | 0.00 | 0.00 | 92 | |
| 20260905071511 | 62 | 357 | 0.0 | 0.0 | 0.00 | 0.00 | 0.00 | 92 | |
| 20260905071011 | 62 | 1 | 1.0 | 1.0 | 0.00 | 0.00 | 0.00 | 92 | |
| 20260905070506 | 63 | 359 | 0.0 | 0.0 | 0.00 | 0.00 | 0.00 | 91 | |
| 20260905070001 | 63 | 358 | 0.0 | 1.0 | 0.00 | 0.00 | 0.00 | 91 | |
| 20260905065459 | 63 | 10 | 0.0 | 1.0 | 0.00 | 0.00 | 0.00 | 91 | |
| 20260905064955 | 63 | 359 | 0.0 | 1.0 | 0.00 | 0.00 | 0.00 | 90 | |
| 20260905064449 | 63 | 358 | 0.0 | 2.0 | 0.00 | 0.00 | 0.00 | 90 | |
| 20260905063944 | 63 | 6 | 0.0 | 0.0 | 0.00 | 0.00 | 0.00 | 90 | |
| 20260905063439 | 63 | 357 | 1.0 | 2.0 | 0.00 | 0.00 | 0.00 | 89 | |
| 20260905062930 | 63 | 354 | 0.0 | 1.0 | 0.00 | 0.00 | 0.00 | 89 | |
| 20260905062430 | 63 | 353 | 0.0 | 0.0 | 0.00 | 0.00 | 0.00 | 88 | |
| 20260905061925 | 63 | 74 | 0.0 | 1.0 | 0.00 | 0.00 | 0.00 | 88 | |
| 20260905061425 | 63 | 5 | 1.0 | 3.0 | 0.00 | 0.00 | 0.00 | 88 | |
| 20260905060924 | 64 | 6 | 0.0 | 0.0 | 0.00 | 0.00 | 0.00 | 87 | |
| 20260905060421 | 64 | 351 | 1.0 | 2.0 | 0.00 | 0.00 | 0.00 | 87 | |
| 20260905055919 | 64 | 6 | 0.0 | 0.0 | 0.00 | 0.00 | 0.00 | 86 | |
| 20260905055415 | 64 | 1 | 0.0 | 0.0 | 0.00 | 0.00 | 0.00 | 85 | |
| 20260905054914 | 64 | 359 | 0.0 | 0.0 | 0.00 | 0.00 | 0.00 | 85 | |
| 20260905054410 | 64 | 352 | 0.0 | 0.0 | 0.00 | 0.00 | 0.00 | 84 | |
| 20260905053910 | 65 | 5 | 0.0 | 0.0 | 0.00 | 0.00 | 0.00 | 84 | |
| 20260905053405 | 65 | 355 | 0.0 | 0.0 | 0.00 | 0.00 | 0.00 | 83 | |
| 20260905052901 | 65 | 10 | 0.0 | 0.0 | 0.00 | 0.00 | 0.00 | 83 | |
| 20260905052400 | 65 | 2 | 0.0 | 0.0 | 0.00 | 0.00 | 0.00 | 83 | |
| 20260905051859 | 64 | 8 | 0.0 | 0.0 | 0.00 | 0.00 | 0.00 | 83 | |
| 20260905051355 | 64 | 0 | 0.0 | 0.0 | 0.00 | 0.00 | 0.00 | 83 | |
| 20260905050853 | 64 | 1 | 0.0 | 0.0 | 0.00 | 0.00 | 0.00 | 83 | |
| 20260905050348 | 64 | 353 | 0.0 | 0.0 | 0.00 | 0.00 | 0.00 | 83 | |
| 20260905045848 | 64 | 0 | 0.0 | 0.0 | 0.00 | 0.00 | 0.00 | 83 | |
| 20260905045343 | 64 | 1 | 0.0 | 0.0 | 0.00 | 0.00 | 0.00 | 83 | |
| 20260905044839 | 64 | 356 | 0.0 | 0.0 | 0.00 | 0.00 | 0.00 | 83 | |
| 20260905044334 | 64 | 6 | 0.0 | 0.0 | 0.00 | 0.00 | 0.00 | 83 | |
| 20260905043832 | 64 | 351 | 0.0 | 0.0 | 0.00 | 0.00 | 0.00 | 83 | |
| 20260905043328 | 64 | 355 | 0.0 | 0.0 | 0.00 | 0.00 | 0.00 | 83 | |
| 20260905042823 | 64 | 0 | 0.0 | 0.0 | 0.00 | 0.00 | 0.00 | 83 | |
| 20260905042322 | 64 | 355 | 0.0 | 0.0 | 0.00 | 0.00 | 0.00 | 83 | |
| 20260905041817 | 64 | 3 | 0.0 | 0.0 | 0.00 | 0.00 | 0.00 | 83 | |
| 20260905041314 | 64 | 356 | 0.0 | 0.0 | 0.00 | 0.00 | 0.00 | 83 | |
| 20260905040808 | 64 | 356 | 0.0 | 0.0 | 0.00 | 0.00 | 0.00 | 84 | |
| 20260905040307 | 64 | 356 | 0.0 | 0.0 | 0.00 | 0.00 | 0.00 | 84 | |
| 20260905035802 | 64 | 356 | 0.0 | 0.0 | 0.00 | 0.00 | 0.00 | 84 | |
| 20260905035258 | 64 | 356 | 0.0 | 0.0 | 0.00 | 0.00 | 0.00 | 83 | |
| 20260905034754 | 64 | 356 | 0.0 | 0.0 | 0.00 | 0.00 | 0.00 | 83 | |
| 20260905034254 | 65 | 356 | 0.0 | 0.0 | 0.00 | 0.00 | 0.00 | 83 | |
| 20260905033753 | 65 | 356 | 0.0 | 0.0 | 0.00 | 0.00 | 0.00 | 82 | |
| 20260905033248 | 65 | 356 | 0.0 | 0.0 | 0.00 | 0.00 | 0.00 | 82 | |
| 20260905032748 | 65 | 356 | 0.0 | 0.0 | 0.00 | 0.00 | 0.00 | 82 | |
| 20260905032243 | 66 | 3 | 0.0 | 0.0 | 0.00 | 0.00 | 0.00 | 81 | |
| 20260905031738 | 66 | 2 | 0.0 | 0.0 | 0.00 | 0.00 | 0.00 | 80 | |
| 20260905031234 | 66 | 3 | 0.0 | 0.0 | 0.00 | 0.00 | 0.00 | 80 | |
| 20260905030729 | 66 | 3 | 0.0 | 0.0 | 0.00 | 0.00 | 0.00 | 80 | |
| 20260905030224 | 66 | 2 | 0.0 | 0.0 | 0.00 | 0.00 | 0.00 | 79 | |
| 20260905025719 | 67 | 7 | 0.0 | 0.0 | 0.00 | 0.00 | 0.00 | 78 | |
| 20260905025214 | 67 | 4 | 0.0 | 0.0 | 0.00 | 0.00 | 0.00 | 78 | |
| 20260905024710 | 67 | 3 | 0.0 | 0.0 | 0.00 | 0.00 | 0.00 | 77 | |
| 20260905024206 | 67 | 2 | 0.0 | 0.0 | 0.00 | 0.00 | 0.00 | 77 | |
| 20260905023700 | 68 | 357 | 0.0 | 1.0 | 0.00 | 0.00 | 0.00 | 76 | |
| 20260905023155 | 68 | 357 | 0.0 | 1.0 | 0.00 | 0.00 | 0.00 | 76 | |
| 20260905022654 | 68 | 357 | 0.0 | 0.0 | 0.00 | 0.00 | 0.00 | 76 | |
| 20260905022149 | 68 | 6 | 0.0 | 0.0 | 0.00 | 0.00 | 0.00 | 75 | |
| 20260905021649 | 68 | 24 | 0.0 | 1.0 | 0.00 | 0.00 | 0.00 | 75 | |
| 20260905021144 | 68 | 5 | 0.0 | 0.0 | 0.00 | 0.00 | 0.00 | 75 | |
| 20260905020639 | 68 | 357 | 0.0 | 0.0 | 0.00 | 0.00 | 0.00 | 75 | |
| 20260905020134 | 68 | 357 | 0.0 | 1.0 | 0.00 | 0.00 | 0.00 | 75 | |
| 20260905015633 | 68 | 357 | 0.0 | 1.0 | 0.00 | 0.00 | 0.00 | 75 | |
| 20260905015127 | 69 | 357 | 0.0 | 1.0 | 0.00 | 0.00 | 0.00 | 75 | |
| 20260905014621 | 69 | 341 | 0.0 | 0.0 | 0.00 | 0.00 | 0.00 | 74 | |
| 20260905014117 | 69 | 358 | 0.0 | 1.0 | 0.00 | 0.00 | 0.00 | 74 | |
| 20260905013613 | 69 | 0 | 0.0 | 1.0 | 0.00 | 0.00 | 0.00 | 73 | |
| 20260905013109 | 69 | 4 | 0.0 | 1.0 | 0.00 | 0.00 | 0.00 | 73 | |
| 20260905012609 | 69 | 354 | 0.0 | 0.0 | 0.00 | 0.00 | 0.00 | 72 | |
| 20260905012106 | 69 | 3 | 0.0 | 1.0 | 0.00 | 0.00 | 0.00 | 71 | |
| 20260905011601 | 70 | 13 | 0.0 | 1.0 | 0.00 | 0.00 | 0.00 | 71 | |
| 20260905011057 | 70 | 356 | 0.0 | 1.0 | 0.00 | 0.00 | 0.00 | 71 | |
| 20260905010556 | 70 | 62 | 0.0 | 2.0 | 0.00 | 0.00 | 0.00 | 70 | |
| 20260905010053 | 70 | 351 | 0.0 | 2.0 | 0.00 | 0.00 | 0.00 | 70 | |
| 20260905005548 | 70 | 21 | 1.0 | 3.0 | 0.00 | 0.00 | 0.00 | 70 | |
| 20260905005043 | 70 | 44 | 1.0 | 3.0 | 0.00 | 0.00 | 0.00 | 71 | |
| 20260905004538 | 70 | 31 | 0.0 | 0.0 | 0.00 | 0.00 | 0.00 | 71 | |
| 20260905004033 | 71 | 9 | 0.0 | 0.0 | 0.00 | 0.00 | 0.00 | 71 | |
| 20260905003529 | 71 | 7 | 0.0 | 1.0 | 0.00 | 0.00 | 0.00 | 70 | |
| 20260905003025 | 71 | 0 | 0.0 | 3.0 | 0.00 | 0.00 | 0.00 | 69 | |
| 20260905002520 | 71 | 45 | 2.0 | 5.0 | 0.00 | 0.00 | 0.00 | 68 | |
| 20260905002020 | 71 | 10 | 0.0 | 3.0 | 0.00 | 0.00 | 0.00 | 69 | |
| 20260905001515 | 71 | 9 | 0.0 | 2.0 | 0.00 | 0.00 | 0.00 | 70 | |
| 20260905001009 | 71 | 147 | 1.0 | 3.0 | 0.00 | 0.00 | 0.00 | 69 | |
| 20260905000504 | 71 | 359 | 0.0 | 1.0 | 0.00 | 0.00 | 0.00 | 69 | |
| 20260905000000 | 71 | 1 | 0.0 | 1.0 | 0.00 | 0.00 | 0.00 | 69 | |
| 20260904235455 | 72 | 341 | 2.0 | 3.0 | 0.00 | 0.00 | 0.00 | 69 | |
| 20260904234949 | 72 | 23 | 0.0 | 5.0 | 0.00 | 0.00 | 0.00 | 69 | |
| 20260904234449 | 72 | 355 | 3.0 | 3.0 | 0.00 | 0.00 | 0.00 | 69 | |
| 20260904233945 | 72 | 359 | 0.0 | 2.0 | 0.00 | 0.00 | 0.00 | 70 | |
| 20260904233440 | 73 | 2 | 2.0 | 2.0 | 0.00 | 0.00 | 0.00 | 71 | |
| 20260904232937 | 73 | 82 | 0.0 | 1.0 | 0.00 | 0.00 | 0.00 | 71 | |
| 20260904232433 | 73 | 9 | 1.0 | 5.0 | 0.00 | 0.00 | 0.00 | 71 | |
| 20260904231930 | 73 | 43 | 1.0 | 3.0 | 0.00 | 0.00 | 0.00 | 71 | |
| 20260904231429 | 74 | 349 | 1.0 | 6.0 | 0.00 | 0.00 | 0.00 | 70 | |
| 20260904230925 | 74 | 10 | 1.0 | 2.0 | 0.00 | 0.00 | 0.00 | 70 | |
| 20260904230423 | 74 | 349 | 2.0 | 2.0 | 0.00 | 0.00 | 0.00 | 70 | |
| 20260904225918 | 74 | 359 | 1.0 | 3.0 | 0.00 | 0.00 | 0.00 | 71 | |
| 20260904225417 | 75 | 17 | 1.0 | 2.0 | 0.00 | 0.00 | 0.00 | 71 | |
| 20260904224911 | 74 | 69 | 1.0 | 3.0 | 0.00 | 0.00 | 0.00 | 71 | |
| 20260904224407 | 75 | 340 | 2.0 | 2.0 | 0.00 | 0.00 | 0.00 | 71 | |
| 20260904223901 | 75 | 6 | 2.0 | 3.0 | 0.00 | 0.00 | 0.00 | 71 | |
| 20260904223400 | 75 | 16 | 0.0 | 2.0 | 0.00 | 0.00 | 0.00 | 72 | |
| 20260904222856 | 75 | 11 | 1.0 | 2.0 | 0.00 | 0.00 | 0.00 | 72 | |
| 20260904222357 | 75 | 353 | 0.0 | 1.0 | 0.00 | 0.00 | 0.00 | 72 | |
| 20260904221856 | 75 | 25 | 1.0 | 1.0 | 0.00 | 0.00 | 0.00 | 72 | |
| 20260904221351 | 75 | 17 | 0.0 | 1.0 | 0.00 | 0.00 | 0.00 | 72 | |
| 20260904220846 | 75 | 353 | 0.0 | 1.0 | 0.00 | 0.00 | 0.00 | 72 | |
| 20260904220346 | 75 | 327 | 0.0 | 1.0 | 0.00 | 0.00 | 0.00 | 71 | |
| 20260904215841 | 76 | 354 | 0.0 | 1.0 | 0.00 | 0.00 | 0.00 | 71 | |
| 20260904215336 | 76 | 5 | 0.0 | 1.0 | 0.00 | 0.00 | 0.00 | 70 | |
| 20260904214832 | 76 | 6 | 0.0 | 1.0 | 0.00 | 0.00 | 0.00 | 70 | |
| 20260904214328 | 76 | 359 | 0.0 | 2.0 | 0.00 | 0.00 | 0.00 | 69 | |
| 20260904213826 | 76 | 9 | 0.0 | 1.0 | 0.00 | 0.00 | 0.00 | 69 | |
| 20260904213321 | 76 | 10 | 0.0 | 2.0 | 0.00 | 0.00 | 0.00 | 69 | |
| 20260904212818 | 77 | 5 | 1.0 | 2.0 | 0.00 | 0.00 | 0.00 | 68 | |
| 20260904212317 | 77 | 150 | 1.0 | 3.0 | 0.00 | 0.00 | 0.00 | 67 | |
| 20260904211813 | 77 | 19 | 1.0 | 2.0 | 0.00 | 0.00 | 0.00 | 67 |